NOAA 16 DEB, 41504

Orbit data source: Space-Track

NOAA 16 DEB, 41504 is space debris in SSO originally from a launch on Thu, 21 Sep 2000 UTC launched from the Air Force Western Test Range (AFWTR). Debris objects in space refer to the collection of defunct objects orbiting the Earth. Examples of debris include non-operational satellites, rocket bodies, and fragments generated from explosions, collisions, or faulty payload assembly.

Loading next visibility...
Identifier
41504, 2000-055MC
Orbit
SSO
Country
Flag of USUS
Related business
Manufacturer
Unknown
Mission
Spacecraft
Bus & Motor
Unknown
Mass
Unknown
Launch date (UTC)
2000-09-21 (26 years ago)
Launch vehicle
Unknown
Launch site
Air Force Western Test Range (AFWTR)
Object type
Payload
Rocket body
Debris
Shape & HBR
Unknown shape, 0.1 m
Radar Cross Section
Medium (>0.1 m² and <1 m²)

Expand to show TLE details & history
Last TLE update: 10 hours ago

TLE from 10 hours ago
0 NOAA 16 DEB
1 41504U 00055MC  26254.42618244  .00002628  00000-0  10756-2 0  9993
2 41504  98.7588 327.0298 0027924 225.8049 134.0838 14.27871798543807
Epoch: 2026-09-11T10:13Z
TLE epoch observation values (Epoch: 2026-09-11T10:13:42.162Z)
Latitude
0.00002°
Longitude
-176.84559°
Altitude
815.751 km
Speed
7.438 km/s
True Right ascension
21h 48m 07s
True Declination
0° 00' 00"
Sunlit
Object was in full shadow at epoch
Visualization orbit readout
Latitude
Unknown
Longitude
Unknown
Altitude
Unknown
Speed
Unknown
Apparent Right ascension
Unknown
Apparent Declination
Unknown
Sunlit
N/A
Visualization observer readout
Local Sidereal Time
12:59:23
Azimuth
Unknown
Elevation
Unknown
Doppler factor
Unknown
Orbital elements
Apogee altitude
816.037 km
Perigee altitude
775.971 km
Semi-major axis
7,174.141 km
Eccentricity
0.00279
Inclination
98.7588°
RAAN
327.0298°
Arg. of periapsis
225.8049°
True anomaly
134.3131°
Mean anomaly
134.0838°
Eccentric anomaly
134.1985°
Mean motion
3.57181 °/min
Orbital period
100.79 mins
BSTAR
0.0010756
Loading maneuver chart data...
Computing Atmospheric mass density...
Loading historical data...
Loading historical data...
Loading historical data...
Loading historical data...
Loading historical data...
Loading historical data...
Loading historical data...

Documentation

Showing up to 5 results
|